Simultaneous Nadir Overpasses (SNOs) Predictions

Prediction of SNOs between GOES-16 and AQUA Satellite Orbit:

Table of predicted SNOs for the next 14.0 days since TLE Epoch: 8/26/2022
Index Date Time (GOES-16) GOES-16 Lat,Lon AQUA Lat,Lon Distance(km) Time Diff (sec)
1 08/28/2022 18:41:12 -0.03, -75.22 -0.11, -75.59 42.60 80
2 08/30/2022 18:31:11 -0.03, -75.23 0.53, -72.50 309.92 80
3 08/31/2022 06:52:19 0.02, -75.23 0.55, -77.63 272.86 80
4 09/02/2022 06:36:58 0.02, -75.25 -0.10, -74.54 79.96 80
5 09/04/2022 06:24:18 0.02, -75.26 -0.81, -71.46 432.50 80
6 09/04/2022 18:45:34 -0.01, -75.27 -0.31, -76.62 152.82 80
7 09/06/2022 18:35:33 0.00, -75.29 0.36, -73.53 199.99 80
8 09/07/2022 06:56:40 -0.00, -75.30 0.73, -78.65 382.52 80
9 09/09/2022 06:44:00 -0.00, -75.32 0.06, -75.57 28.36 80
